Hourly Weather Roundup
Issued by NWS Central Illinois

Home | Current Version | Previous Version | Text Only | Print | Product List | Glossary On
Versions: 1 2 3 4 5 6 7 8 9 10 11 12 13 14 15 16 17 18 19 20 21 22 23 24 25 26 27 28 29 30 31 32 33 34 35 36 37 38 39 40 41 42 43 44 45 46 47 48 49 50
000
NZUS43 KILX 010810
HWRILX

AREA WEATHER ROUNDUP
NATIONAL WEATHER SERVICE, LINCOLN IL
300 AM CDT SAT AUG 01 2015


CITY           SKY/WX    TMP DP  RH WIND       PRES   REMARKS
BLOOMINGTON    CLEAR     67  59  75 W7        30.05S
CHAMPAIGN      CLEAR     62  58  86 W3        30.03S
DANVILLE       CLEAR     64  59  84 NW6       29.98F
DECATUR        CLEAR     69  58  67 N6        30.03F
EFFINGHAM      CLEAR     69  65  86 CALM      30.03F
FLORA          CLEAR     72  66  83 NW5       30.02S
GALESBURG      CLEAR     60  58  93 CALM      30.04F
JACKSONVILLE   PTCLDY    69  66  90 CALM      30.03F
LACON          CLEAR     65  58  76 N5        30.02S
LAWRENCEVILLE  CLEAR     71  68  90 NW6       30.01S
LITCHFIELD     PTCLDY    67  64  89 N3        30.03F
$$


CITY           SKY/WX    TMP DP  RH WIND       PRES   REMARKS
LINCOLN        CLEAR     67  60  77 CALM      30.03F
MACOMB         CLEAR     63  60  90 NW5       30.06F
MATTOON        CLEAR     68  59  73 NW6       30.02F
MT CARMEL AP   CLEAR     70  68  94 CALM      30.00F
OLNEY-NOBLE AP CLEAR     68  68 100 W3        30.01F
PARIS          CLEAR     62  59  91 CALM      30.02F
PEORIA         CLEAR     67  60  78 CALM      30.04S
PONTIAC        CLEAR     61  60  96 CALM      30.03S
RANTOUL        CLEAR     64  60  87 NW6       30.02S
ROBINSON       PTCLDY    67  65  96 CALM      30.02F
SPRINGFIELD    MOCLDY    68  65  90 N5        30.04S
TAYLORVILLE    CLEAR     66  64  94 CALM      30.03F
$$

...REGIONAL REPORTS...


CITY           SKY/WX    TMP DP  RH WIND       PRES   REMARKS
CHICAGO O`HARE FAIR      67  53  61 W8        29.98F
KANKAKEE       CLEAR     62  59  91 W5        30.02R
MOLINE         CLEAR     61  57  87 S5        30.03F
MOUNT STERLING NOT AVBL
MOUNT VERNON   PTCLDY    66  63  88 CALM      30.03S
PITTSFIELD     PTCLDY    70  67  90 CALM      30.05F
QUINCY         MOCLDY    71  67  87 CALM      30.04F
ROCKFORD       CLEAR     61  54  77 CALM      30.02F
$$


CITY           SKY/WX    TMP DP  RH WIND       PRES   REMARKS
BURLINGTON     CLEAR     65  59  81 N6        30.03F
CEDAR RAPIDS   CLEAR     60  59  96 W6        30.03F
DES MOINES     PTCLDY    73  64  73 CALM      30.04F
KIRKSVILLE     PTCLDY    72  66  81 E3        30.06F
OTTUMWA        CLEAR     66  64  93 CALM      30.04S
ST LOUIS       PTCLDY    76  68  76 SW5       30.04S
$$


CITY           SKY/WX    TMP DP  RH WIND       PRES   REMARKS
TERRE HAUTE    CLEAR     66  60  81 W5        30.01F
EVANSVILLE     CLEAR     71  68  90 W3        30.01F
INDIANAPOLIS   PTCLDY    68  59  73 NW5       29.98F
LAFAYETTE      CLEAR     61  59  93 CALM      29.99S
MADISON        CLEAR     64  52  64 W6        29.98F
MILWAUKEE      CLEAR     69  50  50 W7        29.96S
$$




USA.gov is the U.S. government's official web portal to all federal, state and local government web resources and services.